THURAYA-3 (32404 NORAD) Tracking and Keplerian Element Data

This shows tracking and keplerian element data for the satellite.

Feedback or suggestion? Click here.




ElementValue
Catalog32404
NameTHURAYA-3
Epoch Orbit5386
Epoch Day269.79091366
Epoch Year2022
RAAN24.745
Inclination4.1372
Eccentricity0.0001909
Argument of Perigee151.5165
Mean Anonmoly212.5608
Mean Motion1.00271597
Decay Rate-2.97E-06
L11 32404U 08001A 22269.79091366 -.00000297 00000+0 00000+0 0 9991
L22 32404 4.1372 24.7450 0001909 151.5165 212.5608 1.00271597 53865

Live tracking and technical data element details for THURAYA-3 (NORAD 32404). THURAYA-3 can be tracked NOW for your location showing map with azimuth and elevation plus other details from your city location.

Track the satellite on the map from your city or location and see movement details for azimuth, elevation, latitude, longitude, range, height, and movement on the map or in text.







IsCatalogInMostPopularTable: catalog: 32404, numindb: 1054
Update: records affected: 1



GetName: 32404 THURAYA-3

Hit Count: updated at: Wed, 28 Sep 2022 23:41:07 GMT